Total_Precipitation_Accumulation
0.76 1.00 1.48 2.07 2.60 1.90 1.21 0.92 0.66 0.58 0.52 0.44 0.41 0.41 0.49 0.62 0.98 1.56 1.61 1.37 0.93 0.73 0.86 1.16 1.36 1.30 1.17 1.07 1.11 1.19 1.30 1.42 1.37 1.26 1.10 0.90 0.80 0.71 0.74 0.72 0.69 0.65 0.55 0.58 0.61 0.60 0.57 0.52 0.46
0.78 1.48 2.03 2.80 2.51 1.46 1.19 0.94 0.82 0.58 0.46 0.35 0.28 0.36 0.44 0.42 0.55 1.11 1.67 1.57 0.92 0.65 0.68 0.86 1.12 1.14 1.08 1.08 1.14 1.19 1.21 1.21 1.13 1.00 0.85 0.76 0.74 0.69 0.64 0.67 0.68 0.64 0.57 0.59 0.62 0.69 0.61 0.52 0.45
0.91 1.77 2.35 2.57 1.71 1.23 1.17 0.89 0.74 0.54 0.44 0.36 0.25 0.26 0.36 0.55 0.75 1.27 1.51 1.04 0.79 0.62 0.71 0.91 1.09 1.07 1.05 1.04 1.10 1.13 1.11 1.01 0.94 0.89 0.80 0.73 0.71 0.69 0.69 0.67 0.68 0.64 0.56 0.53 0.62 0.67 0.59 0.53 0.45
1.30 2.11 2.36 1.90 1.31 0.94 0.82 0.77 0.62 0.54 0.36 0.26 0.23 0.31 0.44 0.70 0.86 1.13 1.10 0.81 0.74 0.68 0.82 0.94 1.12 1.07 0.97 1.02 1.05 1.01 0.88 0.78 0.83 0.87 0.79 0.73 0.68 0.69 0.72 0.68 0.62 0.56 0.52 0.55 0.61 0.63 0.58 0.55 0.46
1.68 2.30 2.20 1.57 1.21 0.95 0.76 0.65 0.55 0.49 0.43 0.32 0.24 0.44 0.72 0.88 0.87 0.85 0.84 0.76 0.77 0.86 1.03 0.98 1.10 1.01 0.90 0.94 1.01 0.95 0.91 0.86 0.88 0.91 0.84 0.80 0.73 0.70 0.72 0.65 0.54 0.49 0.51 0.57 0.72 0.72 0.55 0.50 0.47
2.12 2.27 2.37 1.72 1.30 1.04 0.89 0.65 0.52 0.46 0.40 0.33 0.28 0.50 0.86 1.06 1.06 0.93 0.93 0.93 0.91 0.91 0.99 0.99 1.09 0.99 0.86 0.86 0.89 0.83 0.85 0.95 0.97 0.90 0.88 1.04 0.87 0.72 0.64 0.60 0.54 0.50 0.50 0.57 0.69 0.71 0.55 0.49 0.53
2.23 2.31 1.98 1.46 1.31 1.36 0.99 0.59 0.52 0.51 0.49 0.39 0.30 0.56 0.93 1.18 1.00 0.81 0.85 0.82 0.81 0.81 0.83 0.80 0.85 0.86 0.82 0.87 0.93 0.91 0.93 1.01 1.04 0.89 0.89 0.97 0.74 0.59 0.54 0.54 0.53 0.54 0.59 0.64 0.67 0.70 0.63 0.59 0.60
1.55 1.67 1.57 1.41 1.38 1.36 0.93 0.54 0.43 0.42 0.48 0.34 0.30 0.52 0.87 0.97 0.81 0.78 0.79 0.79 0.81 0.82 0.81 0.73 0.77 0.86 0.93 0.91 0.92 1.01 1.05 1.01 1.04 0.92 0.89 0.85 0.61 0.50 0.52 0.48 0.46 0.49 0.55 0.64 0.68 0.71 0.66 0.64 0.63
1.43 1.59 1.70 1.65 1.36 1.17 0.86 0.61 0.42 0.33 0.36 0.32 0.27 0.32 0.42 0.53 0.61 0.73 0.81 0.83 0.94 0.87 0.81 0.76 0.69 0.68 0.81 0.92 0.86 1.06 1.15 1.08 0.99 0.94 0.94 0.84 0.58 0.50 0.51 0.48 0.55 0.56 0.64 0.71 0.74 0.71 0.64 0.59 0.54
1.43 1.63 1.67 1.28 0.97 0.87 0.77 0.66 0.53 0.50 0.51 0.43 0.38 0.35 0.34 0.45 0.57 0.63 0.67 0.76 0.87 0.85 0.70 0.69 0.64 0.60 0.59 0.65 0.92 1.27 1.10 0.99 0.82 0.84 0.81 0.81 0.75 0.70 0.55 0.56 0.70 0.73 0.75 0.76 0.76 0.73 0.60 0.46 0.39
1.18 1.21 1.12 1.08 0.77 0.60 0.68 0.65 0.51 0.51 0.58 0.43 0.42 0.38 0.36 0.41 0.45 0.49 0.53 0.59 0.65 0.72 0.67 0.62 0.57 0.52 0.53 0.64 0.75 0.96 1.04 1.01 0.88 0.76 0.76 0.84 0.79 0.69 0.59 0.53 0.58 0.67 0.72 0.66 0.66 0.64 0.48 0.43 0.46
1.04 0.94 0.81 0.77 0.60 0.58 0.70 0.59 0.48 0.53 0.49 0.31 0.29 0.32 0.40 0.44 0.43 0.40 0.47 0.59 0.66 0.69 0.69 0.66 0.57 0.53 0.52 0.54 0.53 0.61 0.69 0.73 0.72 0.64 0.65 0.78 0.73 0.68 0.67 0.66 0.63 0.63 0.65 0.71 0.67 0.63 0.55 0.50 0.52
0.95 0.86 0.68 0.54 0.58 0.58 0.59 0.61 0.51 0.49 0.38 0.32 0.31 0.40 0.44 0.44 0.42 0.41 0.46 0.55 0.59 0.64 0.68 0.66 0.61 0.55 0.52 0.51 0.49 0.46 0.56 0.61 0.62 0.66 0.62 0.66 0.69 0.68 0.67 0.64 0.71 0.72 0.70 0.73 0.70 0.61 0.56 0.54 0.51
0.90 0.82 0.74 0.61 0.59 0.60 0.59 0.60 0.56 0.58 0.44 0.36 0.33 0.37 0.39 0.41 0.42 0.44 0.47 0.53 0.55 0.58 0.69 0.69 0.65 0.65 0.61 0.57 0.54 0.53 0.58 0.63 0.61 0.54 0.53 0.58 0.59 0.61 0.71 0.76 0.78 0.79 0.79 0.85 0.83 0.65 0.64 0.65 0.59
0.79 0.84 0.81 0.72 0.69 0.68 0.68 0.76 0.66 0.61 0.49 0.48 0.39 0.33 0.36 0.37 0.38 0.44 0.45 0.50 0.54 0.62 0.74 0.72 0.70 0.82 0.75 0.68 0.68 0.61 0.64 0.64 0.62 0.63 0.61 0.65 0.66 0.68 0.77 0.86 0.89 0.87 0.85 0.87 1.09 0.98 0.74 0.69 0.64
0.89 0.97 1.10 0.76 0.69 0.74 0.83 0.89 0.64 0.64 0.58 0.58 0.46 0.40 0.38 0.39 0.39 0.38 0.37 0.44 0.49 0.64 0.75 0.84 0.75 0.86 0.84 0.79 0.81 0.76 0.75 0.76 0.72 0.71 0.73 0.73 0.77 0.80 0.89 0.95 0.85 0.92 0.99 1.02 1.17 1.24 0.94 0.76 0.75
0.99 1.02 1.02 0.80 0.61 0.68 0.76 0.77 0.63 0.57 0.48 0.45 0.42 0.42 0.45 0.37 0.35 0.32 0.34 0.38 0.44 0.60 0.72 0.87 0.88 0.87 0.92 0.94 0.97 0.94 0.90 0.91 0.88 0.88 0.83 0.85 0.89 0.96 1.03 1.05 0.99 0.99 1.01 1.11 1.11 1.32 1.27 1.07 0.94
0.95 0.82 0.78 0.71 0.63 0.64 0.65 0.55 0.51 0.46 0.41 0.38 0.38 0.38 0.37 0.32 0.32 0.31 0.29 0.31 0.36 0.52 0.65 0.80 0.93 1.05 1.12 1.15 1.19 1.20 1.12 1.06 1.09 1.11 1.08 1.09 1.14 1.11 1.17 1.20 1.22 1.30 1.27 1.26 1.19 1.36 1.47 1.26 1.21
0.70 0.65 0.66 0.58 0.53 0.53 0.48 0.42 0.43 0.39 0.37 0.33 0.33 0.34 0.29 0.27 0.30 0.29 0.24 0.27 0.31 0.41 0.52 0.70 1.05 1.47 1.65 1.54 1.49 1.55 1.66 1.64 1.55 1.52 1.50 1.55 1.55 1.55 1.59 1.56 1.54 1.51 1.46 1.52 1.50 1.74 2.06 1.61 1.39
0.65 0.68 0.67 0.60 0.44 0.41 0.40 0.35 0.33 0.32 0.33 0.30 0.28 0.31 0.27 0.25 0.24 0.22 0.18 0.20 0.26 0.42 0.57 0.70 1.00 1.43 1.62 1.73 1.85 2.06 2.24 2.13 2.00 1.98 1.93 2.01 2.03 2.19 2.15 2.13 2.12 2.02 2.01 1.99 1.91 1.99 2.26 1.93 1.72
0.64 0.64 0.62 0.56 0.41 0.35 0.33 0.33 0.27 0.27 0.28 0.27 0.26 0.28 0.25 0.21 0.20 0.21 0.18 0.20 0.25 0.36 0.47 0.62 0.81 1.09 1.44 1.71 1.99 2.27 2.50 2.48 2.37 2.20 2.17 2.23 2.30 2.46 2.60 2.59 2.62 2.44 2.31 2.31 2.24 2.18 2.30 2.36 2.13
0.65 0.44 0.40 0.39 0.47 0.47 0.35 0.48 0.32 0.29 0.30 0.30 0.28 0.27 0.26 0.23 0.23 0.26 0.23 0.23 0.26 0.31 0.39 0.53 0.72 0.95 1.20 1.45 1.87 2.32 2.62 2.72 2.63 2.52 2.47 2.43 2.46 2.51 2.73 2.77 2.87 2.70 2.58 2.53 2.44 2.26 2.35 2.63 2.56
0.48 0.37 0.36 0.37 0.43 0.39 0.28 0.37 0.33 0.27 0.30 0.31 0.29 0.27 0.25 0.24 0.25 0.29 0.29 0.31 0.33 0.33 0.37 0.48 0.63 0.86 1.11 1.33 1.70 2.11 2.40 2.63 2.78 2.61 2.48 2.50 2.53 2.56 2.69 2.83 2.94 2.80 2.67 2.59 2.69 2.58 2.52 2.45 2.42
0.38 0.37 0.35 0.34 0.40 0.44 0.22 0.32 0.42 0.28 0.26 0.27 0.25 0.24 0.25 0.26 0.31 0.37 0.46 0.49 0.48 0.42 0.44 0.53 0.61 0.76 0.92 1.07 1.29 1.53 1.88 2.16 2.51 2.50 2.43 2.55 2.54 2.47 2.40 2.56 2.80 2.73 2.72 2.72 2.79 2.84 2.77 2.75 2.75
0.34 0.48 0.58 0.57 0.56 0.40 0.19 0.32 0.46 0.33 0.25 0.25 0.26 0.25 0.26 0.30 0.34 0.42 0.57 0.62 0.63 0.54 0.48 0.50 0.62 0.68 0.75 0.86 0.97 1.13 1.39 1.57 1.95 2.27 2.25 2.17 2.23 2.29 2.35 2.39 2.40 2.40 2.49 2.63 2.85 2.82 2.72 2.70 2.79
0.28 0.43 0.64 0.70 0.62 0.43 0.32 0.49 0.54 0.38 0.31 0.27 0.26 0.29 0.33 0.36 0.42 0.59 0.75 0.77 0.76 0.67 0.56 0.55 0.65 0.70 0.71 0.76 0.80 0.90 1.04 1.15 1.33 1.55 1.67 1.71 1.78 2.01 2.13 2.24 2.22 2.24 2.31 2.39 2.51 2.55 2.57 2.54 2.52
0.23 0.29 0.34 0.48 0.45 0.46 0.49 0.59 0.53 0.33 0.31 0.33 0.34 0.38 0.49 0.56 0.61 0.74 0.88 0.90 0.82 0.74 0.65 0.63 0.68 0.78 0.78 0.78 0.79 0.89 0.94 0.96 1.07 1.11 1.26 1.46 1.50 1.57 1.71 1.83 1.94 2.06 2.12 2.19 2.35 2.42 2.41 2.43 2.42
0.16 0.21 0.35 0.52 0.63 0.64 0.54 0.58 0.56 0.44 0.43 0.42 0.47 0.52 0.64 0.74 0.80 0.89 1.03 1.04 0.89 0.76 0.66 0.63 0.66 0.78 0.96 1.08 1.03 0.97 1.04 1.11 1.33 1.35 1.20 1.20 1.38 1.46 1.51 1.57 1.66 1.82 1.96 2.05 2.13 2.24 2.34 2.35 2.34
0.20 0.30 0.42 0.56 0.56 0.75 0.84 0.79 0.64 0.62 0.63 0.64 0.66 0.72 0.79 0.91 0.92 0.90 0.98 1.05 0.93 0.74 0.66 0.60 0.61 0.72 0.86 0.90 0.96 0.95 0.99 1.09 1.37 1.59 1.53 1.35 1.36 1.40 1.37 1.33 1.42 1.58 1.71 1.82 1.95 2.01 2.01 2.05 2.18
0.29 0.40 0.59 0.86 0.79 0.74 0.89 0.89 0.69 0.62 0.65 0.67 0.67 0.66 0.71 0.83 0.84 0.86 0.89 0.86 0.76 0.61 0.53 0.50 0.50 0.62 0.74 0.73 0.78 0.86 0.87 0.97 1.09 1.21 1.23 1.17 1.10 1.08 1.14 1.20 1.22 1.31 1.48 1.61 1.66 1.67 1.71 1.78 1.90